• In Deutschland
  • Länderverzeichnis
  • Für 7 Tage
  • Wassertemperatur
  • Satellitenkarten
  • Wetterkarte
  • Widgets
  • user-avatar
    Anmelden

    Stündliche Wetter Koblenz

    Heute, 13 Dezember, Mittwoch

    Zeit Temperatur Niederschläge Wind Luftdruck Luftfeuchtigkeit
    00:00 -1°C° 0 mm 2 m/S 755 mmHg 91%
    01:00 +1°C° 0 mm 2 m/S 755 mmHg 92%
    02:00 0°C° 0 mm 3 m/S 755 mmHg 91%
    03:00 +1°C° 0 mm 3 m/S 755 mmHg 90%
    04:00 0°C° 0 mm 4 m/S 754 mmHg 89%
    05:00 0°C° 0 mm 4 m/S 754 mmHg 88%
    06:00 +1°C° 0 mm 4 m/S 753 mmHg 86%
    07:00 +1°C° 0 mm 4 m/S 753 mmHg 85%
    08:00 +1°C° 0 mm 5 m/S 752 mmHg 83%
    09:00 +1°C° 0 mm 6 m/S 751 mmHg 82%
    10:00 +2°C° 0 mm 6 m/S 751 mmHg 80%
    11:00 +2°C° 0,5 mm 7 m/S 750 mmHg 79%
    12:00 +3°C° 0,5 mm 7 m/S 749 mmHg 77%
    13:00 +3°C° 0,5 mm 7 m/S 748 mmHg 76%
    14:00 +3°C° 1,1 mm 7 m/S 747 mmHg 79%
    15:00 +3°C° 1,1 mm 7 m/S 746 mmHg 81%
    16:00 +3°C° 1,1 mm 7 m/S 745 mmHg 83%
    17:00 +4°C° 0,5 mm 6 m/S 744 mmHg 85%
    18:00 +4°C° 0,5 mm 6 m/S 743 mmHg 86%
    19:00 +4°C° 0,5 mm 6 m/S 742 mmHg 88%
    20:00 +5°C° 0,2 mm 6 m/S 740 mmHg 87%
    21:00 +5°C° 0,2 mm 7 m/S 739 mmHg 86%
    22:00 +5°C° 0,2 mm 7 m/S 738 mmHg 86%
    23:00 +5°C° 1,6 mm 7 m/S 738 mmHg 83%

    Morgen, 14 Dezember, Donnerstag

    Zeit Temperatur Niederschläge Wind Luftdruck Luftfeuchtigkeit
    00:00 +5°C° 1,6 mm 6 m/S 738 mmHg 81%
    01:00 +4°C° 1,6 mm 6 m/S 738 mmHg 79%
    02:00 +4°C° 0,7 mm 6 m/S 738 mmHg 81%
    03:00 +3°C° 0,7 mm 6 m/S 738 mmHg 82%
    04:00 +3°C° 0,7 mm 6 m/S 738 mmHg 84%
    05:00 +2°C° 0,4 mm 7 m/S 739 mmHg 79%
    06:00 0°C° 0,4 mm 7 m/S 740 mmHg 75%
    07:00 0°C° 0,4 mm 8 m/S 741 mmHg 71%
    08:00 0°C° 0 mm 8 m/S 742 mmHg 72%
    09:00 0°C° 0 mm 7 m/S 743 mmHg 73%
    10:00 0°C° 0 mm 7 m/S 744 mmHg 75%
    11:00 +2°C° 0,3 mm 7 m/S 743 mmHg 75%
    12:00 +2°C° 0,3 mm 7 m/S 743 mmHg 76%
    13:00 +3°C° 0,3 mm 7 m/S 743 mmHg 77%
    14:00 +3°C° 0,7 mm 6 m/S 742 mmHg 80%
    15:00 +3°C° 0,7 mm 5 m/S 741 mmHg 82%
    16:00 +2°C° 0,7 mm 5 m/S 741 mmHg 84%
    17:00 +3°C° 0,3 mm 4 m/S 740 mmHg 86%
    18:00 +3°C° 0,3 mm 4 m/S 740 mmHg 88%
    19:00 +3°C° 0,3 mm 3 m/S 739 mmHg 89%
    20:00 +3°C° 0,4 mm 3 m/S 739 mmHg 90%
    21:00 +2°C° 0,4 mm 3 m/S 738 mmHg 91%
    22:00 +2°C° 0,4 mm 3 m/S 738 mmHg 92%
    23:00 +2°C° 0,2 mm 3 m/S 738 mmHg 90%

    übermorgen, 15 Dezember, Freitag

    Zeit Temperatur Niederschläge Wind Luftdruck Luftfeuchtigkeit
    00:00 +2°C° 0,2 mm 3 m/S 739 mmHg 89%
    01:00 +1°C° 0,2 mm 4 m/S 739 mmHg 87%
    02:00 +1°C° 0 mm 4 m/S 740 mmHg 88%
    03:00 +1°C° 0 mm 3 m/S 740 mmHg 88%
    04:00 0°C° 0 mm 3 m/S 740 mmHg 88%
    05:00 0°C° 0 mm 3 m/S 740 mmHg 89%
    06:00 0°C° 0 mm 3 m/S 741 mmHg 89%
    07:00 0°C° 0 mm 3 m/S 741 mmHg 90%
    08:00 +1°C° 0,2 mm 3 m/S 741 mmHg 90%
    09:00 +1°C° 0,2 mm 3 m/S 741 mmHg 90%
    10:00 +2°C° 0,2 mm 3 m/S 742 mmHg 90%
    11:00 +3°C° 0,1 mm 3 m/S 742 mmHg 89%
    12:00 +3°C° 0,1 mm 3 m/S 742 mmHg 88%
    13:00 +3°C° 0,1 mm 3 m/S 742 mmHg 87%
    14:00 +3°C° 0 mm 3 m/S 742 mmHg 88%
    15:00 +3°C° 0 mm 3 m/S 742 mmHg 89%
    16:00 +4°C° 0 mm 2 m/S 743 mmHg 90%
    17:00 +3°C° 0,1 mm 2 m/S 743 mmHg 92%
    18:00 +3°C° 0,1 mm 2 m/S 743 mmHg 93%
    19:00 +3°C° 0,1 mm 2 m/S 744 mmHg 94%
    20:00 +3°C° 0 mm 1 m/S 744 mmHg 94%
    21:00 +3°C° 0 mm 1 m/S 745 mmHg 95%
    22:00 +3°C° 0 mm 1 m/S 745 mmHg 95%
    23:00 +3°C° 0 mm 1 m/S 745 mmHg 95%

    16 Dezember, Samstag

    Zeit Temperatur Niederschläge Wind Luftdruck Luftfeuchtigkeit
    00:00 +2°C° 0 mm 2 m/S 746 mmHg 95%
    01:00 +2°C° 0 mm 2 m/S 746 mmHg 95%
    02:00 +2°C° 0 mm 2 m/S 746 mmHg 95%
    03:00 +2°C° 0 mm 2 m/S 747 mmHg 94%
    04:00 +2°C° 0 mm 2 m/S 747 mmHg 94%
    05:00 +2°C° 0 mm 2 m/S 748 mmHg 94%
    06:00 +1°C° 0 mm 2 m/S 748 mmHg 93%
    07:00 +1°C° 0 mm 2 m/S 749 mmHg 93%
    08:00 +1°C° 0 mm 2 m/S 749 mmHg 92%
    09:00 0°C° 0 mm 3 m/S 750 mmHg 91%
    10:00 +1°C° 0 mm 3 m/S 751 mmHg 89%
    11:00 +1°C° 0 mm 3 m/S 751 mmHg 87%
    12:00 +1°C° 0 mm 4 m/S 751 mmHg 85%
    13:00 +3°C° 0 mm 4 m/S 752 mmHg 83%
    14:00 +3°C° 0 mm 4 m/S 752 mmHg 83%
    15:00 +2°C° 0 mm 3 m/S 753 mmHg 83%
    16:00 +2°C° 0 mm 3 m/S 753 mmHg 84%
    17:00 +1°C° 0 mm 3 m/S 754 mmHg 85%
    18:00 +1°C° 0 mm 3 m/S 754 mmHg 87%
    19:00 0°C° 0 mm 3 m/S 755 mmHg 88%
    20:00 0°C° 0 mm 3 m/S 755 mmHg 89%
    21:00 0°C° 0 mm 3 m/S 756 mmHg 90%
    22:00 0°C° 0 mm 3 m/S 757 mmHg 90%
    23:00 0°C° 0 mm 3 m/S 757 mmHg 91%

    17 Dezember, Sonntag

    Zeit Temperatur Niederschläge Wind Luftdruck Luftfeuchtigkeit
    00:00 0°C° 0 mm 3 m/S 757 mmHg 91%
    01:00 0°C° 0 mm 3 m/S 758 mmHg 91%
    02:00 0°C° 0,1 mm 3 m/S 758 mmHg 92%
    03:00 0°C° 0,1 mm 3 m/S 758 mmHg 92%
    04:00 0°C° 0,1 mm 3 m/S 758 mmHg 92%
    05:00 0°C° 0,2 mm 3 m/S 759 mmHg 92%
    06:00 +1°C° 0,2 mm 3 m/S 759 mmHg 93%
    07:00 +2°C° 0,2 mm 2 m/S 759 mmHg 93%
    08:00 +2°C° 0,1 mm 2 m/S 760 mmHg 92%
    09:00 +2°C° 0,1 mm 2 m/S 760 mmHg 92%
    10:00 +2°C° 0,1 mm 2 m/S 761 mmHg 92%
    11:00 +3°C° 0 mm 2 m/S 761 mmHg 90%
    12:00 +2°C° 0 mm 3 m/S 761 mmHg 88%
    13:00 +3°C° 0 mm 3 m/S 761 mmHg 86%
    14:00 +2°C° 0 mm 3 m/S 762 mmHg 88%
    15:00 +3°C° 0 mm 2 m/S 762 mmHg 89%
    16:00 +3°C° 0 mm 2 m/S 762 mmHg 91%
    17:00 +2°C° 0 mm 2 m/S 763 mmHg 92%
    18:00 +1°C° 0 mm 2 m/S 763 mmHg 93%
    19:00 +1°C° 0 mm 2 m/S 764 mmHg 94%
    20:00 +1°C° 0 mm 2 m/S 764 mmHg 94%
    21:00 -1°C° 0 mm 2 m/S 765 mmHg 94%
    22:00 -1°C° 0 mm 2 m/S 765 mmHg 94%
    23:00 -1°C° 0 mm 2 m/S 765 mmHg 93%

    18 Dezember, Montag

    Zeit Temperatur Niederschläge Wind Luftdruck Luftfeuchtigkeit
    00:00 +1°C° 0 mm 2 m/S 765 mmHg 93%
    01:00 +1°C° 0 mm 2 m/S 764 mmHg 92%
    02:00 0°C° 0 mm 3 m/S 764 mmHg 92%
    03:00 0°C° 0 mm 3 m/S 764 mmHg 91%
    04:00 -1°C° 0 mm 4 m/S 763 mmHg 90%
    05:00 0°C° 0,5 mm 4 m/S 763 mmHg 90%
    06:00 0°C° 0,5 mm 5 m/S 762 mmHg 90%
    07:00 0°C° 0,5 mm 5 m/S 761 mmHg 90%
    08:00 0°C° 1,3 mm 5 m/S 761 mmHg 91%
    09:00 +1°C° 1,3 mm 5 m/S 760 mmHg 91%
    10:00 +1°C° 1,3 mm 5 m/S 759 mmHg 92%
    11:00 +2°C° 0,6 mm 5 m/S 759 mmHg 94%
    12:00 +2°C° 0,6 mm 5 m/S 758 mmHg 95%
    13:00 +3°C° 0,6 mm 5 m/S 758 mmHg 96%
    14:00 +4°C° 0,3 mm 4 m/S 758 mmHg 97%
    15:00 +4°C° 0,3 mm 4 m/S 758 mmHg 97%
    16:00 +5°C° 0,3 mm 3 m/S 758 mmHg 97%
    17:00 +4°C° 0,1 mm 3 m/S 759 mmHg 97%
    18:00 +4°C° 0,1 mm 3 m/S 760 mmHg 97%
    19:00 +4°C° 0,1 mm 3 m/S 761 mmHg 97%
    20:00 +4°C° 0 mm 3 m/S 762 mmHg 97%
    21:00 +3°C° 0 mm 3 m/S 762 mmHg 96%
    22:00 +4°C° 0 mm 2 m/S 763 mmHg 96%
    23:00 +4°C° 0 mm 2 m/S 764 mmHg 96%
    Mehr zeigen